Location: Widowville
(40.7495°N, 82.3166°W)
Time: 05:11:21
(UTC+00:00)

Daily predictions for brighter satellites

Satellite Brightness Start Highest point End
(mag) Time Altitude Azimuth Time Altitude Azimuth Time Altitude Azimuth
ISS -2.1 00:00:16 10° NW 00:02:04 26° NNW 00:02:04 26° NNW
Cosmos 2266 Rocket 4.0 00:00:10 10° N 00:06:30 60° E 00:12:48 10° SSE
SL-16 R/B 3.4 00:02:00 10° N 00:05:05 26° NNE 00:05:05 26° NNE
Cosmos 2082 Rocket 3.1 00:02:05 10° SW 00:07:32 46° WNW 00:11:58 15° N
ATLAS 5 CENTAUR R/B 3.7 00:05:22 10° NNW 00:08:17 21° N 00:08:17 21° N
Meteor 2-15 Rocket 4.3 00:06:50 10° S 00:12:54 69° E 00:15:51 32° NNE
Cosmos 1328 Rocket 4.3 00:12:34 10° SSW 00:16:55 53° W 00:19:19 25° NNW
CZ-2C R/B 3.2 00:17:24 10° SW 00:19:38 20° S 00:19:38 20° S
Meteor 1-27 Rocket 4.3 00:15:31 10° S 00:19:10 40° SSE 00:19:10 40° SSE
Cosmos 2278 3.8 00:15:26 10° NNW 00:21:09 74° WSW 00:26:47 10° SSE
Lacrosse 5 rocket 3.6 00:18:09 10° NNW 00:18:55 14° NNW 00:18:55 14° NNW
ARGOS 4.0 00:21:57 10° S 00:27:10 48° W 00:32:24 10° NNW
IRAS Rocket 4.2 00:28:34 67° SSE 00:28:34 67° SSE 00:33:28 10° S
COSMOS 2455 4.4 00:27:52 10° WSW 00:33:03 29° NW 00:36:35 17° N
SL-08 RB Rocket 4.5 00:29:04 10° S 00:33:36 52° W 00:38:07 10° NNW
Cosmos 1655 Rocket 4.1 00:32:42 10° N 00:39:05 74° W 00:45:24 10° S
DMSP B5D2-2 4.2 00:40:33 70° W 00:40:33 70° W 00:45:41 10° SSW
GEOS 3 Rocket 4.3 00:46:40 47° NW 00:46:40 47° NW 00:50:19 10° NW
CZ-4C R/B 3.8 01:09:50 10° NW 01:17:07 49° WSW 01:21:47 26° S
CENTAUR R/B 4.4 08:51:33 24° NE 08:51:33 24° NE 08:54:15 10° NE
Cosmos 2344 4.2 09:14:06 44° NNE 09:14:06 44° NNE 09:19:06 10° NNE
USA 238 DEB 4.0 09:40:07 55° NNE 09:40:07 55° NNE 09:45:20 10° NE
USA 238 3.9 09:40:11 56° NNE 09:40:11 56° NNE 09:45:26 10° NE
BREEZE-M DEB (TANK) 3.8 09:43:04 52° ENE 09:43:04 52° ENE 09:52:12 10° ESE
USA 215 4.3 09:43:16 10° E 09:48:59 34° NNE 09:50:35 30° N
Cosmos 921 Rocket 4.5 09:53:48 35° ENE 09:53:52 35° ENE 09:57:57 10° SE
Cosmos 1867 3.8 10:03:11 60° SSE 10:03:11 60° SSE 10:07:36 10° SSE
Cosmos 2208 Rocket 4.1 10:02:49 72° SE 10:02:49 72° SE 10:07:37 10° SSE
Cosmos 2369 Rocket 2.3 10:05:54 33° S 10:08:29 73° ESE 10:14:05 10° NNE
NOSS 3-3 (A) 4.5 10:11:42 48° NW 10:14:11 74° WSW 10:22:45 10° SSE
NOSS 3-3 (C) 4.5 10:11:46 48° NW 10:14:16 75° WSW 10:22:51 10° SSE
Cosmos 1486 Rocket 4.2 10:09:50 10° S 10:15:05 69° ESE 10:20:21 10° NNE
Cosmos 1656 Rocket 3.8 10:19:35 10° SSW 10:24:56 71° ESE 10:30:21 10° NNE
Iridium 2 4.1 10:22:22 10° S 10:26:06 62° E 10:26:47 50° NE
COSMO-SKYMED 1 3.0 10:28:17 10° SSE 10:32:33 61° ENE 10:35:30 20° N
Cosmos 1943 Rocket 3.4 10:35:16 25° NNW 10:35:16 25° NNW 10:38:14 10° N
CZ-2C R/B 2.9 10:28:34 10° SSE 10:34:01 69° ENE 10:39:23 10° N
CENTAUR R/B 3.3 10:38:46 32° NW 10:38:48 32° NW 10:45:03 10° NNE
Envisat 2.9 10:35:38 10° NNE 10:40:44 88° WNW 10:45:49 10° SSW
TSX-5 4.3 10:38:24 33° NNW 10:41:01 85° WSW 10:45:32 10° SSE
Cosmos 968 Rocket 4.2 10:45:20 34° NNW 10:45:20 34° NNW 10:48:56 10° N
Cosmos 2098 Rocket 2.8 10:41:23 10° SSW 10:45:08 76° W 10:49:56 10° N
DELTA 2 R/B (1) 3.8 10:47:13 31° WSW 10:49:54 67° SSE 10:55:25 10° E
Genesis I 3.7 10:52:06 41° WSW 10:52:06 41° WSW 10:55:48 10° S
Cosmos 2279 Rocket 3.9 10:48:08 10° N 10:54:21 89° ENE 11:00:33 10° S
SKYMED 3 4.4 10:52:19 10° S 10:56:39 72° WSW 10:59:53 18° NNW
NOSS 3-2 (C) 4.2 11:00:55 27° WNW 11:01:58 29° NW 11:07:30 10° NNE
Cosmos 1812 2.9 11:03:50 37° WNW 11:04:40 44° W 11:08:19 10° SSW
CBERS 1 LM4 rocket 4.4 11:01:27 10° N 11:06:16 62° WNW 11:11:15 10° SSW
MOS 1-B Rocket 4.2 11:00:47 10° S 11:06:56 47° W 11:12:30 10° NNW
Cosmos 1515 Rocket 4.3 11:02:40 10° N 11:06:57 53° E 11:11:11 10° SSE
ATLAS 3B R/B 3.8 11:00:59 10° S 11:07:03 44° ESE 11:13:23 10° NE
Cosmos 1354 Rocket 3.9 11:03:18 10° SSW 11:08:34 83° WNW 11:13:54 10° NNE
SJ 16-02 2.6 11:05:31 10° S 11:09:40 44° ESE 11:13:50 10° NNE
Cosmos 1634 Rocket 4.3 11:05:08 10° NNW 11:10:58 42° W 11:16:44 10° SSW
Meteor PRIRODA 4.3 11:08:26 10° NNE 11:12:00 56° E 11:15:33 10° S
ADEOS 3.5 11:09:41 10° NNE 11:14:56 85° WNW 11:20:09 10° SSW
CZ-4B R/B 4.4 11:11:34 10° N 11:15:50 45° WNW 11:20:05 10° SW
Landsat 5 3.7 11:13:13 10° S 11:17:38 57° W 11:22:04 10° NNW
Meteor 2-6 Rocket 4.1 11:12:41 10° NNW 11:18:00 59° W 11:23:16 10° S
CZ-4C R/B 2.6 11:16:42 10° S 11:19:49 64° W 11:22:17 15° NNW
SKYMED 2 4.1 11:16:38 10° SSW 11:20:39 38° W 11:24:07 14° NNW
SL-8 R/B 3.9 11:17:47 22° NW 11:20:51 64° NNE 11:25:35 10° ESE
ATLAS 5 CENTAUR R/B 1.9 11:17:24 10° SSW 11:21:05 58° ESE 11:25:08 10° NE
Cosmos 1500 Rocket 4.2 11:19:45 10° S 11:24:07 59° E 11:28:31 10° NNE
Meteor 1-31 Rocket 3.5 11:23:27 10° N 11:26:55 31° WNW 11:30:22 10° SW
CZ-2C R/B 3.0 11:22:41 10° NNE 11:27:36 85° ESE 11:32:44 10° SSW
Meteor 2-15 4.4 11:22:40 10° NNW 11:28:44 75° W 11:34:44 10° S
SJ-7 4.4 11:26:58 10° N 11:31:09 66° WNW 11:35:13 10° SSW
USA 215 3.3 11:24:58 10° SE 11:31:31 90° SW 11:37:55 11° NW
Cosmos 921 Rocket 4.4 11:30:39 18° WNW 11:31:53 20° W 11:35:09 10° SW
Cosmos 1833 4.3 11:27:45 10° NNW 11:33:22 62° WSW 11:39:01 10° S
H-2A R/B 4.1 11:31:45 10° NNW 11:34:45 17° WNW 11:36:51 10° WSW
Alouette 2 Rocket 4.2 11:33:58 10° N 11:37:33 46° ENE 11:41:03 10° SSE
H-2A R/B 2.4 11:33:56 10° SSE 11:38:08 70° ENE 11:42:28 10° N
Cosmos 1862 4.5 11:35:18 10° SW 11:38:22 22° WNW 11:41:28 10° NNW
Meteor 1-10 Rocket 4.3 11:33:29 10° NNW 11:38:53 54° W 11:44:16 10° S
Meteor 2-19 Rocket 4.4 11:34:01 10° SSW 11:40:01 66° W 11:46:03 10° N
Cosmos 1151 Rocket 4.4 11:42:45 10° NW 11:45:51 20° W 11:49:02 10° SW
H-2A R/B 3.8 11:42:16 10° NNE 11:46:46 35° E 11:51:15 10° SSE
Cosmos 2297 Rocket 4.2 11:46:17 10° N 11:50:47 24° NE 11:55:16 10° ESE
BREEZE-M DEB (TANK) 3.9 11:41:05 11° WNW 11:52:45 89° SSW 11:56:16 10° ESE
Cosmos 2369 Rocket 3.5 11:49:21 10° W 11:53:07 18° NW 11:56:54 10° N
SL-27 R/B 2.5 11:51:31 10° NNW 11:55:03 58° WSW 11:58:29 10° S
